Time,TemperatureF,DewpointF,PressureIn,WindDirection,WindDirectionDegrees,WindSpeedMPH,WindSpeedGustMPH,Humidity,HourlyPrecipIn,Conditions,Clouds,dailyrainin,SoftwareType,DateUTC
2013-05-19 00:00:00,77.2,60.3,29.74,South,169,0.0,0.0,56,0.00,,,0.00,VWS V12.07,2013-05-19 05:00:00,
2013-05-19 00:30:00,77.2,60.3,29.74,South,169,0.0,0.0,56,0.00,,,0.00,VWS V12.07,2013-05-19 05:30:00,
2013-05-19 00:45:00,77.2,60.3,29.74,South,169,0.0,0.0,56,0.00,,,0.00,VWS V12.07,2013-05-19 05:45:00,
2013-05-19 01:00:00,77.2,60.3,29.73,South,169,0.0,0.0,56,0.00,,,0.00,VWS V12.07,2013-05-19 06:00:00,
2013-05-19 01:15:00,77.2,60.3,29.73,South,169,0.0,0.0,56,0.00,,,0.00,VWS V12.07,2013-05-19 06:15:00,
2013-05-19 01:30:00,77.2,60.3,29.72,South,169,0.0,0.0,56,0.00,,,0.00,VWS V12.07,2013-05-19 06:30:00,
2013-05-19 01:45:00,77.2,60.3,29.72,South,169,0.0,0.0,56,0.00,,,0.00,VWS V12.07,2013-05-19 06:45:00,
2013-05-19 02:00:00,77.2,60.3,29.70,South,169,0.0,0.0,56,0.00,,,0.00,VWS V12.07,2013-05-19 07:00:00,
2013-05-19 02:15:00,77.2,60.3,29.70,South,169,0.0,0.0,56,0.00,,,0.00,VWS V12.07,2013-05-19 07:15:00,
2013-05-19 02:30:00,77.2,60.3,29.70,South,169,0.0,0.0,56,0.00,,,0.00,VWS V12.07,2013-05-19 07:30:00,
2013-05-19 02:45:00,77.2,60.3,29.70,South,169,0.0,0.0,56,0.00,,,0.00,VWS V12.07,2013-05-19 07:45:00,
2013-05-19 03:00:00,77.2,60.3,29.71,South,169,0.0,0.0,56,0.00,,,0.00,VWS V12.07,2013-05-19 08:00:00,
2013-05-19 03:15:00,77.2,60.3,29.73,South,169,0.0,0.0,56,0.00,,,0.00,VWS V12.07,2013-05-19 08:15:00,
2013-05-19 03:30:00,77.2,60.3,29.74,South,169,0.0,0.0,56,0.00,,,0.00,VWS V12.07,2013-05-19 08:30:00,
2013-05-19 03:45:00,77.2,60.3,29.74,South,169,0.0,0.0,56,0.00,,,0.00,VWS V12.07,2013-05-19 08:45:00,
2013-05-19 04:00:00,77.2,60.3,29.74,South,169,0.0,0.0,56,0.00,,,0.00,VWS V12.07,2013-05-19 09:00:00,
2013-05-19 04:30:00,77.2,60.3,29.72,South,169,0.0,0.0,56,0.00,,,0.00,VWS V12.07,2013-05-19 09:30:00,
2013-05-19 04:45:00,77.2,60.3,29.72,South,169,0.0,0.0,56,0.00,,,0.00,VWS V12.07,2013-05-19 09:45:00,
2013-05-19 05:00:00,77.2,60.3,29.72,South,169,0.0,0.0,56,0.00,,,0.00,VWS V12.07,2013-05-19 10:00:00,
2013-05-19 05:30:00,77.2,60.3,29.69,South,169,0.0,0.0,56,0.00,,,0.00,VWS V12.07,2013-05-19 10:30:00,
2013-05-19 05:45:00,77.2,60.3,29.70,South,169,0.0,0.0,56,0.00,,,0.00,VWS V12.07,2013-05-19 10:45:00,
2013-05-19 06:00:00,77.2,60.3,29.70,South,169,0.0,0.0,56,0.00,,,0.00,VWS V12.07,2013-05-19 11:00:00,
2013-05-19 06:30:00,77.2,60.3,29.69,South,169,0.0,0.0,56,0.00,,,0.00,VWS V12.07,2013-05-19 11:30:00,
2013-05-19 06:45:00,77.2,60.3,29.70,South,169,0.0,0.0,56,0.00,,,0.00,VWS V12.07,2013-05-19 11:45:00,
2013-05-19 07:00:00,77.2,60.3,29.69,South,169,0.0,0.0,56,0.00,,,0.00,VWS V12.07,2013-05-19 12:00:00,
2013-05-19 07:30:00,77.2,60.3,29.70,South,169,0.0,0.0,56,0.00,,,0.00,VWS V12.07,2013-05-19 12:30:00,
2013-05-19 07:45:00,77.2,60.3,29.72,South,169,0.0,0.0,56,0.00,,,0.00,VWS V12.07,2013-05-19 12:45:00,
2013-05-19 08:00:00,77.2,60.3,29.74,South,169,0.0,0.0,56,0.00,,,0.00,VWS V12.07,2013-05-19 13:00:00,
2013-05-19 08:30:00,77.2,60.3,29.74,South,169,0.0,0.0,56,0.00,,,0.00,VWS V12.07,2013-05-19 13:30:00,
2013-05-19 08:45:00,77.2,60.3,29.72,South,169,0.0,0.0,56,0.00,,,0.00,VWS V12.07,2013-05-19 13:45:00,
2013-05-19 09:00:00,77.2,60.3,29.69,South,169,0.0,0.0,56,0.00,,,0.00,VWS V12.07,2013-05-19 14:00:00,
2013-05-19 09:30:00,77.2,60.3,29.64,South,169,0.0,0.0,56,0.00,,,0.00,VWS V12.07,2013-05-19 14:30:00,
2013-05-19 09:45:00,77.2,60.3,29.62,South,169,0.0,0.0,56,0.00,,,0.00,VWS V12.07,2013-05-19 14:45:00,
2013-05-19 10:00:00,77.2,60.3,29.65,South,169,0.0,0.0,56,0.00,,,0.00,VWS V12.07,2013-05-19 15:00:00,
2013-05-19 10:30:00,77.2,60.3,29.65,South,169,0.0,0.0,56,0.00,,,0.00,VWS V12.07,2013-05-19 15:30:00,
2013-05-19 10:45:00,77.2,60.3,29.65,South,169,0.0,0.0,56,0.00,,,0.00,VWS V12.07,2013-05-19 15:45:00,
2013-05-19 11:00:00,77.2,60.3,29.64,South,169,0.0,0.0,56,0.00,,,0.00,VWS V12.07,2013-05-19 16:00:00,
2013-05-19 11:15:00,77.2,60.3,29.64,South,169,0.0,0.0,56,0.00,,,0.00,VWS V12.07,2013-05-19 16:15:00,
2013-05-19 11:30:00,77.2,60.3,29.65,South,169,0.0,0.0,56,0.00,,,0.00,VWS V12.07,2013-05-19 16:30:00,
2013-05-19 11:45:00,75.1,61.2,29.63,SE,132,14.0,18.0,62,0.00,,,0.00,VWS V12.07,2013-05-19 16:45:00,
2013-05-19 12:00:00,75.6,62.1,29.61,ESE,110,7.0,19.0,63,0.00,,,0.00,VWS V12.07,2013-05-19 17:00:00,
2013-05-19 12:15:00,77.2,62.7,29.59,SE,136,5.0,16.0,61,0.00,,,0.00,VWS V12.07,2013-05-19 17:15:00,
2013-05-19 12:30:00,79.4,60.8,29.58,SSE,153,12.0,22.0,53,0.00,,,0.00,VWS V12.07,2013-05-19 17:30:00,
2013-05-19 12:45:00,80.1,60.9,29.57,SSW,198,6.0,18.0,52,0.00,,,0.00,VWS V12.07,2013-05-19 17:45:00,
2013-05-19 13:00:00,81.4,60.4,29.60,South,171,11.0,20.0,49,0.00,,,0.00,VWS V12.07,2013-05-19 18:00:00,
2013-05-19 13:30:00,81.2,60.2,29.59,SW,222,11.0,21.0,49,0.00,,,0.00,VWS V12.07,2013-05-19 18:30:00,
2013-05-19 13:45:00,81.8,59.6,29.58,SE,138,11.0,22.0,47,0.00,,,0.00,VWS V12.07,2013-05-19 18:45:00,
2013-05-19 14:00:00,82.4,60.8,29.57,SE,131,13.0,22.0,48,0.00,,,0.00,VWS V12.07,2013-05-19 19:00:00,
2013-05-19 14:30:00,83.8,60.2,29.57,SE,132,12.0,23.0,45,0.00,,,0.00,VWS V12.07,2013-05-19 19:30:00,
2013-05-19 14:45:00,84.1,60.5,29.56,South,191,9.0,18.0,45,0.00,,,0.00,VWS V12.07,2013-05-19 19:45:00,
2013-05-19 15:00:00,84.5,59.6,29.55,South,189,14.0,18.0,43,0.00,,,0.00,VWS V12.07,2013-05-19 20:00:00,
2013-05-19 15:30:00,83.6,60.7,29.55,SSE,158,8.0,15.0,46,0.00,,,0.00,VWS V12.07,2013-05-19 20:30:00,
2013-05-19 15:45:00,81.6,61.2,29.55,SSE,162,10.0,19.0,50,0.00,,,0.00,VWS V12.07,2013-05-19 20:45:00,
2013-05-19 16:00:00,80.5,61.8,29.55,SSE,153,7.0,23.0,53,0.00,,,0.00,VWS V12.07,2013-05-19 21:00:00,
2013-05-19 16:30:00,79.4,63.3,29.53,SSE,165,0.0,0.0,58,0.00,,,0.00,VWS V12.07,2013-05-19 21:30:00,
2013-05-19 16:45:00,79.4,62.3,29.54,South,169,5.0,14.0,56,0.00,,,0.00,VWS V12.07,2013-05-19 21:45:00,
2013-05-19 17:00:00,79.2,62.7,29.55,SSE,165,0.0,14.0,57,0.00,,,0.00,VWS V12.07,2013-05-19 22:00:00,
2013-05-19 17:30:00,79.8,62.2,29.54,South,182,7.0,7.0,55,0.00,,,0.00,VWS V12.07,2013-05-19 22:30:00,
2013-05-19 17:45:00,79.9,61.8,29.54,SE,131,0.0,11.0,54,0.00,,,0.00,VWS V12.07,2013-05-19 22:45:00,
2013-05-19 18:00:00,79.8,61.7,29.54,SSE,167,3.0,12.0,54,0.00,,,0.00,VWS V12.07,2013-05-19 23:00:00,
2013-05-19 18:30:00,76.7,59.8,29.54,WSW,239,0.0,14.0,56,0.00,,,0.00,VWS V12.07,2013-05-19 23:30:00,
2013-05-19 18:45:00,76.7,59.8,29.52,WSW,239,0.0,0.0,56,0.00,,,0.00,VWS V12.07,2013-05-19 23:45:00,
2013-05-19 19:00:00,76.7,59.8,29.57,WSW,239,0.0,0.0,56,0.00,,,0.00,VWS V12.07,2013-05-20 00:00:00,
2013-05-19 19:15:00,76.7,59.8,29.61,WSW,239,0.0,0.0,56,0.00,,,0.00,VWS V12.07,2013-05-20 00:15:00,
2013-05-19 19:30:00,76.7,59.8,29.53,WSW,239,0.0,0.0,56,0.00,,,0.00,VWS V12.07,2013-05-20 00:30:00,
2013-05-19 19:45:00,76.7,59.8,29.54,WSW,239,0.0,0.0,56,0.00,,,0.00,VWS V12.07,2013-05-20 00:45:00,
2013-05-19 20:00:00,76.7,59.8,29.55,WSW,239,0.0,0.0,56,0.00,,,0.00,VWS V12.07,2013-05-20 01:00:00,
2013-05-19 20:15:00,76.7,59.8,29.56,WSW,239,0.0,0.0,56,0.00,,,0.00,VWS V12.07,2013-05-20 01:15:00,
2013-05-19 20:30:00,76.7,59.8,29.57,WSW,239,0.0,0.0,56,0.00,,,0.00,VWS V12.07,2013-05-20 01:30:00,
2013-05-19 20:45:00,76.7,59.8,29.56,WSW,239,0.0,0.0,56,0.00,,,0.00,VWS V12.07,2013-05-20 01:45:00,
2013-05-19 21:00:00,76.7,59.8,29.61,WSW,239,0.0,0.0,56,0.00,,,0.00,VWS V12.07,2013-05-20 02:00:00,
2013-05-19 21:15:00,76.7,59.8,29.57,WSW,239,0.0,0.0,56,0.00,,,0.00,VWS V12.07,2013-05-20 02:15:00,
2013-05-19 21:30:00,76.7,59.8,29.56,WSW,239,0.0,0.0,56,0.00,,,0.00,VWS V12.07,2013-05-20 02:30:00,
2013-05-19 21:45:00,76.7,59.8,29.55,WSW,239,0.0,0.0,56,0.00,,,0.00,VWS V12.07,2013-05-20 02:45:00,
2013-05-19 22:00:00,76.7,59.8,29.53,WSW,239,0.0,0.0,56,0.00,,,0.00,VWS V12.07,2013-05-20 03:00:00,
2013-05-19 22:30:00,76.7,59.8,29.55,WSW,239,0.0,0.0,56,0.00,,,0.00,VWS V12.07,2013-05-20 03:30:00,
2013-05-19 22:45:00,76.7,59.8,29.55,WSW,239,0.0,0.0,56,0.00,,,0.00,VWS V12.07,2013-05-20 03:45:00,
2013-05-19 23:00:00,76.7,59.8,29.55,WSW,239,0.0,0.0,56,0.00,,,0.00,VWS V12.07,2013-05-20 04:00:00,
2013-05-19 23:15:00,76.7,59.8,29.53,WSW,239,0.0,0.0,56,0.00,,,0.00,VWS V12.07,2013-05-20 04:15:00,
2013-05-19 23:30:00,76.7,59.8,29.52,WSW,239,0.0,0.0,56,0.00,,,0.00,VWS V12.07,2013-05-20 04:30:00,
2013-05-19 23:45:00,76.7,59.8,29.54,WSW,239,0.0,0.0,56,0.00,,,0.00,VWS V12.07,2013-05-20 04:45:00,